Regional Weather Roundup
Issued by NWS

Home | Current Version | Previous Version | Graphics & Text | Print | Product List | Glossary On
Versions: 1 2 3 4 5 6 7 8 9 10 11 12 13 14 15 16 17 18 19 20 21 22 23 24 25 26 27 28 29 30 31 32 33 34 35 36 37 38 39 40 41 42 43 44 45 46 47 48 49 50
000
ASUS43 KMKX 050621
RWRWI

WISCONSIN REGIONAL WEATHER ROUNDUP
NATIONAL WEATHER SERVICE MILWAUKEE/SULLIVAN WI
100 AM CDT SUN JUL 05 2015

NOTE: "FAIR" INDICATES FEW OR NO CLOUDS BELOW 12,000 FEET WITH NO
SIGNIFICANT WEATHER AND/OR OBSTRUCTIONS TO VISIBILITY.

WIZ001-002-006>008-014>016-023>028-050700-
NORTHWEST WISCONSIN

CITY           SKY/WX    TMP DP  RH WIND       PRES   REMARKS
SUPERIOR ARPT  CLEAR     57  56  96 CALM      29.93F
6HR MIN TEMP:  57; 6HR MAX TEMP:  64;

ASHLAND        PTCLDY    55  54  96 CALM      29.93F FOG
6HR MIN TEMP:  55; 6HR MAX TEMP:  66;

HAYWARD        CLOUDY    65  61  87 S5        29.96S FOG
6HR MIN TEMP:  63; 6HR MAX TEMP:  80;

SIREN          CLEAR     69  65  88 S7        29.94F FOG
6HR MIN TEMP:  68; 6HR MAX TEMP:  81;

CUMBERLAND     CLEAR     63  63 100 S6        29.97S FOG
RICE LAKE      CLEAR     67  63  87 SE3       29.99R FOG
6HR MIN TEMP:  66; 6HR MAX TEMP:  80;

CHETEK         CLEAR     65  64  99 CALM      29.99R FOG
6HR MIN TEMP:  65; 6HR MAX TEMP:  79;

LADYSMITH      CLEAR     66  63  91 CALM      30.00S FOG
6HR MIN TEMP:  64; 6HR MAX TEMP:  80;

EAU CLAIRE     CLEAR     68  64  87 CALM      29.98R FOG
6HR MIN TEMP:  67; 6HR MAX TEMP:  80;

MENOMONIE      CLEAR     67  64  88 SE5       29.99R FOG
6HR MIN TEMP:  67; 6HR MAX TEMP:  80;

NEW RICHMOND   CLEAR     67  61  81 S6        29.97S
6HR MIN TEMP:  67; 6HR MAX TEMP:  78;

OSCEOLA        CLEAR     67  67 100 S7        29.97F FOG
6HR MIN TEMP:  67; 6HR MAX TEMP:  81;

$$

WIZ003>005-009-010-017-018-050700-
NORTH CENTRAL WISCONSIN

CITY           SKY/WX    TMP DP  RH WIND       PRES   REMARKS
MANITOWISH WTR MOCLDY    59  59 100 CALM      30.00S FOG
6HR MIN TEMP:  58; 6HR MAX TEMP:  76;

ARBOR VITAE    CLEAR     62  60  93 SE5       30.01R FOG
6HR MIN TEMP:  62; 6HR MAX TEMP:  77;

WOODRUFF       CLEAR     62  60  93 SE5       30.01R FOG
6HR MIN TEMP:  62; 6HR MAX TEMP:  77;

RHINELANDER    MOCLDY    62  60  93 CALM      30.03R FOG
6HR MIN TEMP:  62; 6HR MAX TEMP:  78;

EAGLE RIVER    CLEAR     63  63 100 CALM      30.02R FOG
LAND O LAKES     N/A     57  57  98 CALM      30.03R FOG
6HR MIN TEMP:  57; 6HR MAX TEMP:  76;

PHILLIPS       CLEAR     64  63  96 CALM      29.99S
6HR MIN TEMP:  63; 6HR MAX TEMP:  78;

TOMAHAWK       CLEAR     58  57  96 CALM      30.02R FOG
6HR MIN TEMP:  58; 6HR MAX TEMP:  76;

MEDFORD        CLEAR     66  64  91 S6        30.02R
6HR MIN TEMP:  65; 6HR MAX TEMP:  78;

MERRILL        CLEAR     60  60  99 CALM      30.02R FOG
6HR MIN TEMP:  60; 6HR MAX TEMP:  79;

$$

WIZ029-030-035-036-043>047-050700-
CENTRAL WISCONSIN

CITY           SKY/WX    TMP DP  RH WIND       PRES   REMARKS
WAUSAU         CLEAR     68  64  87 S6        30.00R FOG
6HR MIN TEMP:  67; 6HR MAX TEMP:  80;

MOSINEE        CLEAR     64  63  94 S6        30.02S
MARSHFIELD     PTCLDY    65  61  87 CALM      30.02R FOG
6HR MIN TEMP:  64; 6HR MAX TEMP:  80;

STEVENS POINT  CLEAR     65  60  86 S3        30.02S
6HR MIN TEMP:  64; 6HR MAX TEMP:  78;

WAUPACA        CLEAR     65  64  94 CALM      30.01R FOG
6HR MIN TEMP:  65; 6HR MAX TEMP:  80;

WAUTOMA        CLEAR     63  63 100 CALM      30.03R
6HR MIN TEMP:  62; 6HR MAX TEMP:  82;

WISC RAPIDS    CLEAR     65  61  87 CALM      30.02R
6HR MIN TEMP:  64; 6HR MAX TEMP:  80;

CAMP DOUGLAS   CLEAR     61  61 100 SE1       30.01R
6HR MIN TEMP:  59; 6HR MAX TEMP:  79; 6HR PCP: TRACE;

$$

WIZ011>013-019>022-031-037>040-048>050-050700-
NORTHEAST WISCONSIN

CITY           SKY/WX    TMP DP  RH WIND       PRES   REMARKS
ANTIGO         MOCLDY    63  63  98 S6        30.03S FOG
SHAWANO        CLOUDY    69  63  81 CALM      30.01R
6HR MIN TEMP:  69; 6HR MAX TEMP:  79;

OCONTO         MOCLDY    62  62 100 CALM      30.01R
6HR MIN TEMP:  62; 6HR MAX TEMP:  73;

STURGEON BAY   CLEAR     61  55  82 S7        30.06R
6HR MIN TEMP:  61; 6HR MAX TEMP:  68;

GREEN BAY      CLEAR     64  61  90 CALM      30.02R FOG
6HR MIN TEMP:  64; 6HR MAX TEMP:  76;

MANITOWOC      CLEAR     60  59  96 MISG      30.03R FOG
6HR MIN TEMP:  60; 6HR MAX TEMP:  67;

APPLETON       CLEAR     68  59  73 SW3       30.03R
CLINTONVILLE   PTCLDY    64  63  94 CALM      30.01R
OSHKOSH        CLEAR     65  61  87 S6        30.01R
6HR MIN TEMP:  64; 6HR MAX TEMP:  78;

$$

WIZ032>034-041-042-053>061-050700-
SOUTHWEST WISCONSIN

CITY           SKY/WX    TMP DP  RH WIND       PRES   REMARKS
LA CROSSE      CLEAR     69  65  86 S3        29.99R
6HR MIN TEMP:  69; 6HR MAX TEMP:  81;

SPARTA         CLEAR     61  59  94 CALM      30.01R
6HR MIN TEMP:  61; 6HR MAX TEMP:  80;

VIROQUA        CLEAR     65  60  84 S6        30.03R
6HR MIN TEMP:  65; 6HR MAX TEMP:  77;

BOSCOBEL       FOG       61  59  93 CALM      30.03R VSB 3/4
6HR MIN TEMP:  61; 6HR MAX TEMP:  80;

PRAIRIE DU CHI CLEAR     63  60  90 CALM      30.01R
6HR MIN TEMP:  63; 6HR MAX TEMP:  78;

PLATTEVILLE    CLEAR     65  62  90 SE6       30.03R
6HR MIN TEMP:  65; 6HR MAX TEMP:  77;

$$

WIZ056-057-062-063-064-067-068-050700-
SOUTH CENTRAL WISCONSIN

CITY           SKY/WX    TMP DP  RH WIND       PRES   REMARKS
REEDSBURG      CLEAR     62  60  94 CALM      30.02R
6HR MIN TEMP:  62; 6HR MAX TEMP:  78;

BARABOO/DELLS  CLEAR     62  57  83 CALM      30.02R
6HR MIN TEMP:  62; 6HR MAX TEMP:  77;

LONE ROCK      CLEAR     61  58  90 NE3       30.03R
6HR MIN TEMP:  61; 6HR MAX TEMP:  79;

MINERAL POINT  CLEAR     66  61  82 S5        30.04R
MADISON        CLEAR     64  60  87 CALM      30.02R
6HR MIN TEMP:  64; 6HR MAX TEMP:  79;

MIDDLETON      CLEAR     68  61  79 SW3       30.03R
6HR MIN TEMP:  64; 6HR MAX TEMP:  79;

WATERTOWN      CLEAR     63  63 100 CALM      30.02R
6HR MIN TEMP:  63; 6HR MAX TEMP:  77;

MONROE         CLEAR     64  61  88 S7        30.03S
JANESVILLE     CLEAR     64  61  88 CALM      30.03R FOG
$$

WIZ051-052-058>065-066-070>072-050700-
SOUTHEAST WISCONSIN

CITY           SKY/WX    TMP DP  RH WIND       PRES   REMARKS
MILWAUKEE      PTCLDY    67  55  65 S5        30.03R
6HR MIN TEMP:  65; 6HR MAX TEMP:  76;

WAUKESHA       CLEAR     64  59  82 S3        30.04S
MILWAUKEE/TIMM CLEAR     66  54  63 S6        30.03S
RACINE         CLEAR     64  54  69 S3        30.04S
6HR MIN TEMP:  63; 6HR MAX TEMP:  73;

BURLINGTON     CLEAR     58  58  97 CALM      30.03S FOG
6HR MIN TEMP:  58; 6HR MAX TEMP:  74;

KENOSHA        CLEAR     65  55  70 S6        30.03S
6HR MIN TEMP:  64; 6HR MAX TEMP:  76;

FOND DU LAC    CLEAR     65  61  87 S5        30.02R
6HR MIN TEMP:  64; 6HR MAX TEMP:  79;

SHEBOYGAN      CLEAR     61  57  87 SW3       30.03R
6HR MIN TEMP:  61; 6HR MAX TEMP:  74;

WEST BEND      CLEAR     61  59  94 CALM      30.03R
JUNEAU         CLEAR     65  61  87 CALM      30.04R
6HR MIN TEMP:  65; 6HR MAX TEMP:  77;

$$

LSZ147-162-050700-
LAKE SUPERIOR

STATION/POSITION TIME  TEMP    WIND        PRES    WAVE
                       AIR SEA DIR/SP/G            HT/PER
                 (UTC) (F)     (DEG/KT/KT) (MB)    (FT/S)
W MID LAKE BUOY  0550   45 39   50/  6/  8 1013.5F   0
DEVILS ISLAND    0600   56      60/  4/  4 1013.3F
SAXON HARBOR     0540   59        CALM     1013.2F
$$

LMZ867-665-643>646-050700-
LAKE MICHIGAN

STATION/POSITION TIME  TEMP    WIND        PRES    WAVE
                       AIR SEA DIR/SP/G            HT/PER
                 (UTC) (F)     (DEG/KT/KT) (MB)    (FT/S)



USA.gov is the U.S. government's official web portal to all federal, state and local government web resources and services.